ELECTRON KICK STAGE R/B, 59590

Orbit data source: Space-Track

ELECTRON KICK STAGE R/B, 59590 is space debris in SSO originally from a launch on Tue, 23 Apr 2024 UTC launched from the Rocket Lab Launch Complex (RLLC). Debris objects in space refer to the collection of defunct objects orbiting the Earth. Examples of debris include non-operational satellites, rocket bodies, and fragments generated from explosions, collisions, or faulty payload assembly.

Loading next visibility...
Identifier
59590, 2024-077D
Orbit
SSO
Country
Flag of USUS
Related business
Manufacturer
Rocket Lab
Mission
Spacecraft
Bus & Motor
KICK STAGE, CURIE
Mass
~50 kg wet, ~50 kg dry
Launch date (UTC)
2024-04-23 (2 years ago)
Launch vehicle
Unknown
Launch site
Rocket Lab Launch Complex (RLLC)
Object type
Payload
Rocket body
Debris
Shape & HBR
Trunc Cone, 0.7 m
Radar Cross Section
0.760 m², Medium (>0.1 m² and < 1m²)

Expand to show TLE details & history
Last TLE update: 9 hours ago

TLE from 9 hours ago
0 ELECTRON KICK STAGE R/B
1 59590U 24077D   26119.29396518  .00006720  00000-0  63436-3 0  9990
2 59590  97.3241 122.9287 0347590  42.2674 320.4764 14.57823311106772
Epoch: 2026-04-29T07:03Z
TLE epoch observation values (Epoch: 2026-04-29T07:03:18.591Z)
Latitude
-0.00004°
Longitude
159.84425°
Altitude
517.004 km
Speed
7.704 km/s
True Right ascension
08h 11m 42s
True Declination
0° 00' 00"
Sunlit
Object was in daylight at epoch
Visualization orbit readout
Latitude
Unknown
Longitude
Unknown
Altitude
Unknown
Speed
Unknown
Apparent Right ascension
Unknown
Apparent Declination
Unknown
Sunlit
N/A
Visualization observer readout
Local Sidereal Time
23:36:40
Azimuth
Unknown
Elevation
Unknown
Doppler factor
Unknown
Orbital elements
Apogee altitude
943.185 km
Perigee altitude
451.318 km
Semi-major axis
7,075.389 km
Eccentricity
0.03476
Inclination
97.3241°
RAAN
122.9287°
Arg. of periapsis
42.2674°
True anomaly
317.85473°
Mean anomaly
320.4764°
Eccentric anomaly
319.17441°
Mean motion
3.64685 °/min
Orbital period
98.72 mins
BSTAR
0.00063436
Loading maneuver chart data...
Computing Atmospheric mass density...
Loading historical data...
Loading historical data...
Loading historical data...
Loading historical data...
Loading historical data...
Loading historical data...
Loading historical data...
Other satellites on launch #77 in the year 2024 (2024-04-23 UTC)

Documentation

Showing up to 5 results
|